User: anonymous   Login
Location: Unspecified
(0.0000°N, 0.0000°E)
Time: 11:51:35
(UTC+00:00)
Language:

Kosmos-1333 - Orbit

View from above orbital plane
View from above orbital plane
View from above satellite
View from above satellite

Ground track
Ground track

The orbit data is extracted from the following two-line orbital elements,

1 13033U 82003A   18347.70157061  .00000045  00000-0  32511-4 0  9998
2 13033  82.9428  31.1773 0030942 257.2443 241.0122 13.73214060850059
Epoch (UTC): 13 December 2018 16:50:15
Eccentricity: 0.0030942
inclination: 82.9428°
perigee height: 965 km
apogee height: 1011 km
right ascension of ascending node: 31.1773°
argument of perigee: 257.2443°
revolutions per day: 13.73214060
mean anomaly at epoch: 241.0122°
orbit number at epoch: 85005

The dashed part of the orbit path shows where the satellite is in the earth's shadow,  

DLR